• In Germany
  • List of Countries
  • For 7 days
  • Water Temperature
  • Satellite Maps
  • Weather Map
  • Weather Widgets
  • user-avatar
    Login

    Hourly Weather Bucaramanga

    Today, 18 August, Friday

    Time Temperature Precipitation Wind Pressure Humidity
    00:00 +23°C° 2 mm 1 mps 672 mmHg 90%
    01:00 +22°C° 2 mm 1 mps 672 mmHg 91%
    02:00 +22°C° 1.2 mm 1 mps 672 mmHg 91%
    03:00 +22°C° 1.2 mm 1 mps 672 mmHg 90%
    04:00 +22°C° 1.2 mm 1 mps 671 mmHg 90%
    05:00 +22°C° 0.4 mm 1 mps 672 mmHg 88%
    06:00 +23°C° 0.4 mm 1 mps 672 mmHg 87%
    07:00 +21°C° 0.4 mm 0 mps 673 mmHg 85%
    08:00 +25°C° 0.4 mm 1 mps 673 mmHg 79%
    09:00 +27°C° 0.4 mm 1 mps 673 mmHg 73%
    10:00 +28°C° 0.4 mm 1 mps 674 mmHg 66%
    11:00 +29°C° 0.7 mm 1 mps 673 mmHg 66%
    12:00 +29°C° 0.7 mm 1 mps 672 mmHg 67%
    13:00 +29°C° 0.7 mm 1 mps 672 mmHg 67%
    14:00 +29°C° 1.7 mm 1 mps 671 mmHg 70%
    15:00 +28°C° 1.7 mm 1 mps 671 mmHg 72%
    16:00 +28°C° 1.7 mm 1 mps 670 mmHg 75%
    17:00 +27°C° 1.4 mm 1 mps 670 mmHg 79%
    18:00 +25°C° 1.4 mm 1 mps 671 mmHg 82%
    19:00 +24°C° 1.4 mm 1 mps 671 mmHg 85%
    20:00 +24°C° 2.4 mm 1 mps 671 mmHg 87%
    21:00 +23°C° 2.4 mm 1 mps 672 mmHg 89%
    22:00 +23°C° 2.4 mm 1 mps 672 mmHg 91%
    23:00 +23°C° 2.4 mm 1 mps 672 mmHg 92%

    Tomorrow, 19 August, Saturday

    Time Temperature Precipitation Wind Pressure Humidity
    00:00 +22°C° 2.4 mm 1 mps 672 mmHg 92%
    01:00 +22°C° 2.4 mm 1 mps 671 mmHg 93%
    02:00 +22°C° 1.3 mm 1 mps 671 mmHg 93%
    03:00 +22°C° 1.3 mm 1 mps 671 mmHg 93%
    04:00 +20°C° 1.3 mm 0 mps 671 mmHg 93%
    05:00 +20°C° 1 mm 0 mps 671 mmHg 92%
    06:00 +20°C° 1 mm 0 mps 672 mmHg 90%
    07:00 +21°C° 1 mm 0 mps 672 mmHg 89%
    08:00 +24°C° 0.6 mm 1 mps 673 mmHg 84%
    09:00 +26°C° 0.6 mm 1 mps 673 mmHg 79%
    10:00 +27°C° 0.6 mm 1 mps 673 mmHg 74%
    11:00 +27°C° 0.7 mm 1 mps 673 mmHg 73%
    12:00 +28°C° 0.7 mm 2 mps 672 mmHg 73%
    13:00 +28°C° 0.7 mm 2 mps 671 mmHg 72%
    14:00 +28°C° 1.4 mm 1 mps 671 mmHg 74%
    15:00 +27°C° 1.4 mm 1 mps 670 mmHg 76%
    16:00 +27°C° 1.4 mm 1 mps 670 mmHg 78%
    17:00 +25°C° 1.6 mm 1 mps 670 mmHg 82%
    18:00 +24°C° 1.6 mm 1 mps 670 mmHg 86%
    19:00 +23°C° 1.6 mm 1 mps 671 mmHg 90%
    20:00 +23°C° 1.2 mm 1 mps 671 mmHg 91%
    21:00 +23°C° 1.2 mm 1 mps 672 mmHg 91%
    22:00 +22°C° 1.2 mm 1 mps 673 mmHg 92%
    23:00 +20°C° 0.7 mm 0 mps 672 mmHg 92%

    Day after tomorrow, 20 August, Sunday

    Time Temperature Precipitation Wind Pressure Humidity
    00:00 +20°C° 0.7 mm 0 mps 672 mmHg 92%
    01:00 +20°C° 0.7 mm 0 mps 671 mmHg 92%
    02:00 +20°C° 0.5 mm 0 mps 671 mmHg 91%
    03:00 +19°C° 0.5 mm 0 mps 671 mmHg 91%
    04:00 +19°C° 0.5 mm 0 mps 671 mmHg 91%
    05:00 +20°C° 0.3 mm 0 mps 672 mmHg 90%
    06:00 +20°C° 0.3 mm 0 mps 672 mmHg 90%
    07:00 +20°C° 0.3 mm 0 mps 672 mmHg 89%
    08:00 +22°C° 0.1 mm 0 mps 673 mmHg 84%
    09:00 +25°C° 0.1 mm 1 mps 673 mmHg 78%
    10:00 +27°C° 0.1 mm 1 mps 674 mmHg 72%
    11:00 +27°C° 0.4 mm 1 mps 673 mmHg 71%
    12:00 +27°C° 0.4 mm 1 mps 672 mmHg 69%
    13:00 +28°C° 0.4 mm 1 mps 672 mmHg 68%
    14:00 +27°C° 1.2 mm 1 mps 671 mmHg 72%
    15:00 +27°C° 1.2 mm 1 mps 671 mmHg 75%
    16:00 +26°C° 1.2 mm 1 mps 670 mmHg 79%
    17:00 +25°C° 0.8 mm 1 mps 671 mmHg 82%
    18:00 +24°C° 0.8 mm 1 mps 671 mmHg 84%
    19:00 +23°C° 0.8 mm 1 mps 672 mmHg 87%
    20:00 +23°C° 0.9 mm 1 mps 672 mmHg 87%
    21:00 +23°C° 0.9 mm 1 mps 673 mmHg 87%
    22:00 +23°C° 0.9 mm 1 mps 673 mmHg 87%
    23:00 +22°C° 0.8 mm 1 mps 673 mmHg 88%

    21 August, Monday

    Time Temperature Precipitation Wind Pressure Humidity
    00:00 +20°C° 0.8 mm 0 mps 673 mmHg 88%
    01:00 +20°C° 0.8 mm 0 mps 672 mmHg 89%
    02:00 +19°C° 0.4 mm 0 mps 672 mmHg 89%
    03:00 +21°C° 0.4 mm 1 mps 672 mmHg 89%
    04:00 +21°C° 0.4 mm 1 mps 672 mmHg 90%
    05:00 +21°C° 0.2 mm 1 mps 673 mmHg 89%
    06:00 +22°C° 0.2 mm 1 mps 673 mmHg 87%
    07:00 +22°C° 0.2 mm 1 mps 674 mmHg 86%
    08:00 +24°C° 0.1 mm 1 mps 674 mmHg 79%
    09:00 +26°C° 0.1 mm 1 mps 675 mmHg 72%
    10:00 +28°C° 0.1 mm 1 mps 675 mmHg 64%
    11:00 +28°C° 0.2 mm 1 mps 674 mmHg 65%
    12:00 +28°C° 0.2 mm 1 mps 674 mmHg 66%
    13:00 +28°C° 0.2 mm 1 mps 673 mmHg 66%
    14:00 +28°C° 1.3 mm 1 mps 673 mmHg 70%
    15:00 +28°C° 1.3 mm 1 mps 672 mmHg 73%
    16:00 +27°C° 1.3 mm 1 mps 672 mmHg 77%
    17:00 +26°C° 1.1 mm 1 mps 672 mmHg 80%
    18:00 +25°C° 1.1 mm 1 mps 673 mmHg 84%
    19:00 +23°C° 1.1 mm 1 mps 673 mmHg 87%
    20:00 +23°C° 0.5 mm 1 mps 673 mmHg 87%
    21:00 +22°C° 0.5 mm 1 mps 674 mmHg 86%
    22:00 +22°C° 0.5 mm 1 mps 674 mmHg 86%
    23:00 +22°C° 0.1 mm 1 mps 674 mmHg 86%

    22 August, Tuesday

    Time Temperature Precipitation Wind Pressure Humidity
    00:00 +21°C° 0.1 mm 1 mps 673 mmHg 85%
    01:00 +21°C° 0.1 mm 1 mps 673 mmHg 85%
    02:00 +21°C° 0.1 mm 1 mps 673 mmHg 84%
    03:00 +21°C° 0.1 mm 1 mps 672 mmHg 83%
    04:00 +20°C° 0.1 mm 1 mps 672 mmHg 82%
    05:00 +21°C° 0 mm 1 mps 673 mmHg 80%
    06:00 +21°C° 0 mm 1 mps 674 mmHg 78%
    07:00 +22°C° 0 mm 1 mps 674 mmHg 76%
    08:00 +24°C° 0.1 mm 1 mps 674 mmHg 70%
    09:00 +26°C° 0.1 mm 1 mps 675 mmHg 65%
    10:00 +28°C° 0.1 mm 1 mps 675 mmHg 60%
    11:00 +29°C° 0.1 mm 1 mps 675 mmHg 57%
    12:00 +30°C° 0.1 mm 1 mps 674 mmHg 54%
    13:00 +30°C° 0.1 mm 1 mps 674 mmHg 51%
    14:00 +30°C° 0.6 mm 1 mps 673 mmHg 56%
    15:00 +29°C° 0.6 mm 1 mps 673 mmHg 62%
    16:00 +28°C° 0.6 mm 1 mps 672 mmHg 67%
    17:00 +26°C° 0.6 mm 1 mps 672 mmHg 72%
    18:00 +25°C° 0.6 mm 1 mps 673 mmHg 77%
    19:00 +23°C° 0.6 mm 1 mps 673 mmHg 81%
    20:00 +23°C° 0.8 mm 1 mps 673 mmHg 83%
    21:00 +23°C° 0.8 mm 1 mps 673 mmHg 84%
    22:00 +22°C° 0.8 mm 1 mps 674 mmHg 85%
    23:00 +22°C° 0.7 mm 1 mps 673 mmHg 86%

    23 August, Wednesday

    Time Temperature Precipitation Wind Pressure Humidity
    00:00 +22°C° 0.7 mm 1 mps 673 mmHg 86%
    01:00 +21°C° 0.7 mm 1 mps 673 mmHg 87%
    02:00 +21°C° 0.1 mm 1 mps 672 mmHg 86%
    03:00 +21°C° 0.1 mm 1 mps 672 mmHg 86%
    04:00 +21°C° 0.1 mm 1 mps 672 mmHg 86%
    05:00 +21°C° 0 mm 1 mps 672 mmHg 85%
    06:00 +22°C° 0 mm 1 mps 673 mmHg 84%
    07:00 +20°C° 0 mm 0 mps 673 mmHg 82%
    08:00 +25°C° 0 mm 1 mps 673 mmHg 74%
    09:00 +27°C° 0 mm 1 mps 674 mmHg 65%
    10:00 +29°C° 0 mm 1 mps 674 mmHg 56%
    11:00 +29°C° 0.1 mm 1 mps 673 mmHg 55%
    12:00 +30°C° 0.1 mm 2 mps 673 mmHg 55%
    13:00 +30°C° 0.1 mm 2 mps 672 mmHg 54%
    14:00 +30°C° 1.2 mm 2 mps 671 mmHg 58%
    15:00 +29°C° 1.2 mm 1 mps 671 mmHg 61%
    16:00 +29°C° 1.2 mm 1 mps 670 mmHg 65%
    17:00 +27°C° 0.8 mm 1 mps 671 mmHg 70%
    18:00 +25°C° 0.8 mm 1 mps 671 mmHg 75%
    19:00 +23°C° 0.8 mm 1 mps 671 mmHg 79%
    20:00 +23°C° 0.8 mm 1 mps 671 mmHg 80%
    21:00 +22°C° 0.8 mm 1 mps 672 mmHg 80%
    22:00 +22°C° 0.8 mm 1 mps 672 mmHg 80%
    23:00 +21°C° 1.4 mm 1 mps 672 mmHg 79%
    Show more